Location: Artiguedieu
(43.5000°N, 0.5454°E)
Time: 20:11:58
(UTC+00:00)

Transit 2A - Pass Details

Date: 30 July 2021
Orbit: 594 x 964 km, 66.7° (Epoch: 28 September)

Event Time Altitude Azimuth Distance (km) Brightness Sun altitude
Rises 16:46:25 0° 314° (NW) 3,304 9.9 26.5°
Reaches altitude 10° 16:49:19 10° 298° (WNW) 2,437 9.8 26.0°
Maximum altitude 16:53:23 21° 252° (WSW) 1,874 9.8 25.2°
Drops below altitude 10° 16:57:41 10° 207° (SSW) 2,588 9.1 24.4°
Sets 17:00:53 0° 191° (SSW) 3,572 9.6 23.9°
